Flag for U.S.A. Weather past 2 weeks in Mansfield, Texas, U.S.A.

Now
81 °F

Scattered clouds.


Feels Like: 84 °F
Forecast: 75 / 92 °F
Wind: 5 mph from Southeast

Location: Burleson-Rendon

Current Time: Aug 29, 2014 at 11:26:48 AM

Latest Report: Aug 29, 2014 at 10:50 AM


Visibility: 10 mi

Pressure: 29.96 "Hg

Humidity: 70%

Dew point: 70 °F

Location of MansfieldLocation

Historic Weather in Mansfield — Graph

°F

Mansfield temperature yesterday

Maximum temperature yesterday: 97 °F (at 4:47 PM)
Minimum temperature yesterday: 70 °F (at 6:53 AM)
Average temperature yesterday: 81 °F

Past Weeks' High & Low Weather Summary

 TemperatureHumidityPressure
High100 °F (Aug 15, 2:51 PM)94% (Aug 17, 10:46 AM)30.10 "Hg (Aug 17, 10:46 AM)
Low69 °F (Aug 29, 5:55 AM)22% (Aug 15, 4:50 PM)29.84 "Hg (Aug 28, 7:35 PM)
Average83 °F61%29.96 "Hg
* Reported Aug 14 9:53 AM — Aug 29 9:50 AM, Mansfield, Weather by CustomWeather, © 2014

Note: Actual official high and low records may vary slightly from our data, if they occured in-between our weather recording intervals... More about our weather records

Advertising

Mansfield weather history for previous 24 hours

 ConditionsComfort  
Time TempWeatherWind HumidityBarometerVisibility
9:50 AM
Aug 29
73 °FSunny.5 mph89%29.94 "Hg10 mi
8:53 AM72 °FPassing clouds.6 mph94%29.94 "Hg10 mi
7:48 AM72 °FPassing clouds.No wind94%29.93 "Hg10 mi
6:50 AM70 °FPartly cloudy.9 mph94%29.89 "Hg10 mi
6:35 AM70 °FLight rain. Partly cloudy.5 mph94%29.93 "Hg7 mi
6:15 AM70 °FLight rain. Partly cloudy.3 mph94%29.95 "Hg7 mi
5:55 AM69 °FLight rain. Mostly cloudy.No wind94%29.95 "Hg7 mi
5:15 AM69 °FHeavy rain. Mostly cloudy.7 mph93%29.96 "Hg3 mi
4:55 AM70 °FThundershowers. Low clouds.3 mph92%29.97 "Hg1 mi
4:35 AM70 °FHeavy rain. Overcast.7 mph91%29.97 "Hg4 mi
4:15 AM71 °FLight rain. Overcast.5 mph89%29.97 "Hg7 mi
3:55 AM71 °FRain. Mostly cloudy.10 mph87%29.97 "Hg7 mi
3:35 AM72 °FRain. Overcast.9 mph82%29.96 "Hg10 mi
3:15 AM76 °FMostly cloudy.15 mph71%29.95 "Hg10 mi
2:55 AM78 °FMostly cloudy.16 mph65%29.95 "Hg10 mi
2:35 AM80 °FPassing clouds.5 mph71%29.95 "Hg10 mi
2:15 AM79 °FPassing clouds.No wind73%29.94 "Hg10 mi
1:55 AM79 °FPassing clouds.5 mph72%29.93 "Hg10 mi
1:35 AM80 °FClear.5 mph70%29.92 "Hg10 mi
1:15 AM80 °FClear.8 mph69%29.91 "Hg10 mi
12:55 AM81 °FClear.3 mph67%29.92 "Hg10 mi
12:35 AM81 °FClear.5 mph66%29.92 "Hg10 mi
12:15 AM81 °FClear.6 mph66%29.92 "Hg10 mi
11:55 PM
Aug 28
82 °FClear.7 mph64%29.93 "Hg10 mi
11:35 PM82 °FClear.3 mph63%29.93 "Hg10 mi
11:15 PM83 °FClear.No wind60%29.93 "Hg10 mi
10:55 PM84 °FClear.3 mph57%29.92 "Hg10 mi
10:35 PM85 °FClear.7 mph56%29.91 "Hg10 mi
10:15 PM85 °FClear.5 mph56%29.90 "Hg10 mi
9:55 PM85 °FClear.9 mph53%29.89 "Hg10 mi
9:35 PM86 °FClear.3 mph52%29.89 "Hg10 mi
9:15 PM86 °FPassing clouds.5 mph50%29.88 "Hg10 mi
8:55 PM87 °FBroken clouds.6 mph47%29.88 "Hg10 mi
8:15 PM87 °FSunny.No wind46%29.85 "Hg10 mi
7:55 PM89 °FSunny.No wind43%29.85 "Hg10 mi
7:35 PM90 °FScattered clouds.No wind41%29.84 "Hg10 mi
7:15 PM92 °FPartly sunny.9 mph36%29.85 "Hg10 mi
5:50 PM95 °FPassing clouds.9 mph32%29.85 "Hg10 mi
4:47 PM97 °FScattered clouds.9 mph30%29.87 "Hg10 mi
3:48 PM93 °FScattered clouds.9 mph36%29.90 "Hg10 mi
2:49 PM95 °FScattered clouds.9 mph34%29.92 "Hg10 mi
1:48 PM93 °FBroken clouds.9 mph39%29.95 "Hg10 mi
12:47 PM91 °FPartly sunny.8 mph38%29.97 "Hg10 mi
11:56 AM90 °FScattered clouds.8 mph46%29.98 "Hg10 mi
Weather by CustomWeather, © 2014

See weather overviewHow to use our weather pages